| time (UTC) | temp F | wind direction | speed MPH | gust MPH | rain 1hr in | rain 24hr in | rain mn in | humidity % | barometer mb |
| 20260904160215 | 68 | 0.0 | 0.0 | 0.00 | 0.00 | 0.00 | 85 | 1001.2 | |
| 20260904154715 | 68 | 0.0 | 0.0 | 0.00 | 0.00 | 0.00 | 85 | 1001.2 | |
| 20260904153215 | 68 | 0.0 | 0.0 | 0.00 | 0.00 | 0.00 | 85 | 1001.4 | |
| 20260904151715 | 69 | 0.0 | 0.0 | 0.00 | 0.00 | 0.00 | 85 | 1001.0 | |
| 20260904150216 | 68 | 0.0 | 0.0 | 0.00 | 0.00 | 0.00 | 85 | 1000.4 | |
| 20260904144716 | 72 | 0.0 | 0.0 | 0.00 | 0.00 | 0.00 | 76 | 997.4 | |
| 20260904143216 | 78 | 0.0 | 0.0 | 0.00 | 0.00 | 0.00 | 62 | ||
| 20260904141715 | 78 | 0.0 | 0.0 | 0.00 | 0.00 | 0.00 | 62 | 998.5 | |
| 20260904140215 | 78 | 0.0 | 0.0 | 0.00 | 0.00 | 0.00 | 62 | 999.3 | |
| 20260904134715 | 78 | 0.0 | 0.0 | 0.00 | 0.00 | 0.00 | 63 | 999.2 | |
| 20260904133216 | 77 | 0.0 | 0.0 | 0.00 | 0.00 | 0.00 | 65 | 999.7 | |
| 20260904131716 | 76 | 0.0 | 0.0 | 0.00 | 0.00 | 0.00 | 66 | 1000.1 | |
| 20260904130215 | 76 | 0.0 | 0.0 | 0.00 | 0.00 | 0.00 | 67 | 1000.5 | |
| 20260904124716 | 75 | 0.0 | 0.0 | 0.00 | 0.00 | 0.00 | 67 | 1000.6 | |
| 20260904123216 | 75 | 0.0 | 0.0 | 0.00 | 0.00 | 0.00 | 67 | 1000.5 | |
| 20260904121716 | 75 | 0.0 | 0.0 | 0.00 | 0.00 | 0.00 | 67 | 1000.8 | |
| 20260904120216 | 75 | 0.0 | 0.0 | 0.00 | 0.00 | 0.00 | 67 | 1001.2 | |
| 20260904114715 | 75 | 0.0 | 0.0 | 0.00 | 0.00 | 0.00 | 67 | 1001.6 | |
| 20260904113215 | 75 | 0.0 | 0.0 | 0.00 | 0.00 | 0.00 | 68 | 1001.7 | |
| 20260904111716 | 75 | 0.0 | 0.0 | 0.00 | 0.00 | 0.00 | 68 | 1002.2 | |
| 20260904110215 | 74 | 0.0 | 0.0 | 0.00 | 0.00 | 0.00 | 69 | 1002.5 | |
| 20260904104716 | 74 | 0.0 | 0.0 | 0.00 | 0.00 | 0.00 | 70 | 1002.7 | |
| 20260904103216 | 74 | 0.0 | 0.0 | 0.00 | 0.00 | 0.00 | 71 | 1003.0 | |
| 20260904101715 | 73 | 0.0 | 0.0 | 0.00 | 0.00 | 0.00 | 71 | 1003.1 | |
| 20260904100216 | 73 | 0.0 | 0.0 | 0.00 | 0.00 | 0.00 | 72 | 1003.5 | |
| 20260904094715 | 73 | 0.0 | 0.0 | 0.00 | 0.00 | 0.00 | 72 | 1003.6 | |
| 20260904093215 | 72 | 0.0 | 0.0 | 0.00 | 0.00 | 0.00 | 73 | 1003.4 | |
| 20260904091715 | 72 | 0.0 | 0.0 | 0.00 | 0.00 | 0.00 | 73 | 1004.0 | |
| 20260904090216 | 72 | 0.0 | 0.0 | 0.00 | 0.00 | 0.00 | 74 | 1004.2 | |
| 20260904084716 | 71 | 0.0 | 0.0 | 0.00 | 0.00 | 0.00 | 76 | 1004.1 | |
| 20260904083215 | 71 | 0.0 | 0.0 | 0.00 | 0.00 | 0.00 | 77 | 1004.5 | |
| 20260904081716 | 70 | 0.0 | 0.0 | 0.00 | 0.00 | 0.00 | 77 | 1004.5 | |
| 20260904080216 | 70 | 0.0 | 0.0 | 0.00 | 0.00 | 0.00 | 77 | 1004.2 | |
| 20260904074717 | 70 | 0.0 | 0.0 | 0.00 | 0.00 | 0.00 | 78 | 1005.4 | |
| 20260904073216 | 68 | 0.0 | 0.0 | 0.00 | 0.00 | 0.00 | 79 | 1005.4 | |
| 20260904071715 | 68 | 0.0 | 0.0 | 0.00 | 0.00 | 0.00 | 79 | 1005.8 | |
| 20260904070215 | 67 | 0.0 | 0.0 | 0.00 | 0.00 | 0.00 | 80 | 1005.6 | |
| 20260904064715 | 67 | 0.0 | 0.0 | 0.00 | 0.00 | 0.00 | 81 | 1006.1 | |
| 20260904063215 | 66 | 0.0 | 0.0 | 0.00 | 0.00 | 0.00 | 82 | 1005.8 | |
| 20260904061716 | 66 | 0.0 | 0.0 | 0.00 | 0.00 | 0.00 | 82 | 1006.4 | |
| 20260904060215 | 65 | 0.0 | 0.0 | 0.00 | 0.00 | 0.00 | 83 | 1006.6 | |
| 20260904054715 | 65 | 0.0 | 0.0 | 0.00 | 0.00 | 0.00 | 83 | 1006.6 | |
| 20260904053215 | 65 | 0.0 | 0.0 | 0.00 | 0.00 | 0.00 | 83 | 1006.7 | |
| 20260904051715 | 65 | 0.0 | 0.0 | 0.00 | 0.00 | 0.00 | 83 | 1006.9 | |
| 20260904050216 | 65 | 0.0 | 0.0 | 0.00 | 0.00 | 0.00 | 83 | 1006.7 | |
| 20260904044716 | 65 | 0.0 | 0.0 | 0.00 | 0.00 | 0.00 | 83 | 1006.7 | |
| 20260904043216 | 64 | 0.0 | 0.0 | 0.00 | 0.00 | 0.00 | 83 | 1006.8 | |
| 20260904041715 | 65 | 0.0 | 0.0 | 0.00 | 0.00 | 0.00 | 83 | 1007.1 | |
| 20260904040215 | 65 | 0.0 | 0.0 | 0.00 | 0.00 | 0.00 | 82 | 1007.8 | |
| 20260904034715 | 65 | 0.0 | 0.0 | 0.00 | 0.00 | 0.00 | 81 | 1008.1 | |
| 20260904033215 | 65 | 0.0 | 0.0 | 0.00 | 0.00 | 0.00 | 80 | 1008.0 | |
| 20260904031716 | 65 | 0.0 | 0.0 | 0.00 | 0.00 | 0.00 | 80 | 1008.0 | |
| 20260904030216 | 65 | 0.0 | 0.0 | 0.00 | 0.00 | 0.00 | 80 | 1008.6 | |
| 20260904024715 | 65 | 0.0 | 0.0 | 0.00 | 0.00 | 0.00 | 80 | 1007.9 | |
| 20260904023215 | 65 | 0.0 | 0.0 | 0.00 | 0.00 | 0.00 | 81 | 1008.1 | |
| 20260904021715 | 65 | 0.0 | 0.0 | 0.00 | 0.00 | 0.00 | 81 | 1008.3 | |
| 20260904020216 | 65 | 0.0 | 0.0 | 0.00 | 0.00 | 0.00 | 81 | 1008.1 | |
| 20260904014715 | 65 | 0.0 | 0.0 | 0.00 | 0.00 | 0.00 | 82 | 1008.6 | |
| 20260904013215 | 65 | 0.0 | 0.0 | 0.00 | 0.00 | 0.00 | 82 | 1008.1 | |
| 20260904011716 | 65 | 0.0 | 0.0 | 0.00 | 0.00 | 0.00 | 82 | 1008.5 | |
| 20260904010215 | 65 | 0.0 | 0.0 | 0.00 | 0.00 | 0.00 | 82 | 1008.3 | |
| 20260904004716 | 65 | 0.0 | 0.0 | 0.00 | 0.00 | 0.00 | 82 | 1008.2 | |
| 20260904003215 | 65 | 0.0 | 0.0 | 0.00 | 0.00 | 0.00 | 83 | 1008.3 | |
| 20260904001716 | 65 | 0.0 | 0.0 | 0.00 | 0.00 | 0.00 | 83 | 1008.8 | |
| 20260904000215 | 65 | 0.0 | 0.0 | 0.00 | 0.00 | 0.00 | 83 | 1008.4 | |
| 20260903234715 | 65 | 0.0 | 0.0 | 0.00 | 0.00 | 0.00 | 83 | 1008.9 | |
| 20260903233215 | 65 | 0.0 | 0.0 | 0.00 | 0.00 | 0.00 | 83 | 1008.9 | |
| 20260903231716 | 64 | 0.0 | 0.0 | 0.00 | 0.00 | 0.00 | 83 | 1009.2 | |
| 20260903230216 | 64 | 0.0 | 0.0 | 0.00 | 0.00 | 0.00 | 83 | 1009.3 | |
| 20260903224715 | 64 | 0.0 | 0.0 | 0.00 | 0.00 | 0.00 | 83 | 1009.1 | |
| 20260903223215 | 65 | 0.0 | 0.0 | 0.00 | 0.00 | 0.00 | 83 | 1008.8 | |
| 20260903221715 | 65 | 0.0 | 0.0 | 0.00 | 0.00 | 0.00 | 82 | 1009.1 | |
| 20260903220216 | 65 | 0.0 | 0.0 | 0.00 | 0.00 | 0.00 | 83 | 1009.2 | |
| 20260903214715 | 65 | 0.0 | 0.0 | 0.00 | 0.00 | 0.00 | 83 | ||
| 20260903213215 | 65 | 0.0 | 0.0 | 0.00 | 0.00 | 0.00 | 85 | 1009.2 | |
| 20260903211715 | 64 | 0.0 | 0.0 | 0.00 | 0.00 | 0.00 | 85 | 1009.8 | |
| 20260903210215 | 65 | 0.0 | 0.0 | 0.00 | 0.00 | 0.00 | 83 | 1008.9 | |
| 20260903204716 | 67 | 0.0 | 0.0 | 0.00 | 0.00 | 0.00 | 75 | 1007.4 | |
| 20260903203215 | 68 | 0.0 | 0.0 | 0.00 | 0.00 | 0.00 | 75 | 1008.4 | |
| 20260903201716 | 68 | 0.0 | 0.0 | 0.00 | 0.00 | 0.00 | 75 | 1008.9 | |
| 20260903200216 | 68 | 0.0 | 0.0 | 0.00 | 0.00 | 0.00 | 75 | 1008.9 | |
| 20260903194716 | 68 | 0.0 | 0.0 | 0.00 | 0.00 | 0.00 | 74 | 1009.0 | |
| 20260903193215 | 68 | 0.0 | 0.0 | 0.00 | 0.00 | 0.00 | 75 | 1008.9 | |
| 20260903191715 | 67 | 0.0 | 0.0 | 0.00 | 0.00 | 0.00 | 77 | 1008.9 | |
| 20260903190216 | 67 | 0.0 | 0.0 | 0.00 | 0.00 | 0.00 | 77 | 1008.8 | |
| 20260903184715 | 67 | 0.0 | 0.0 | 0.00 | 0.00 | 0.00 | 78 | 1009.2 | |
| 20260903183215 | 67 | 0.0 | 0.0 | 0.00 | 0.00 | 0.00 | 80 | 1008.8 | |
| 20260903181715 | 67 | 0.0 | 0.0 | 0.00 | 0.00 | 0.00 | 81 | 1009.3 | |
| 20260903180215 | 67 | 0.0 | 0.0 | 0.00 | 0.00 | 0.00 | 81 | 1009.0 | |
| 20260903174716 | 67 | 0.0 | 0.0 | 0.00 | 0.00 | 0.00 | 82 | 1008.5 | |
| 20260903173216 | 66 | 0.0 | 0.0 | 0.00 | 0.00 | 0.00 | 83 | 1008.7 | |
| 20260903171715 | 66 | 0.0 | 0.0 | 0.00 | 0.00 | 0.00 | 83 | 1008.8 | |
| 20260903170215 | 66 | 0.0 | 0.0 | 0.00 | 0.00 | 0.00 | 83 | 1008.7 | |
| 20260903164716 | 66 | 0.0 | 0.0 | 0.00 | 0.00 | 0.00 | 83 | 1008.7 | |
| 20260903163215 | 66 | 0.0 | 0.0 | 0.00 | 0.00 | 0.00 | 82 | 1009.1 | |
| 20260903161715 | 66 | 0.0 | 0.0 | 0.00 | 0.00 | 0.00 | 81 | 1008.5 |